Location: Feignies
(50.3020°N, 3.9195°E)
Time: 02:40:42
(UTC+00:00)

Daily predictions for brighter satellites

Satellite Brightness Start Highest point End
(mag) Time Altitude Azimuth Time Altitude Azimuth Time Altitude Azimuth
CENTAUR R/B 4.2 03:22:50 24° ESE 03:23:11 24° ESE 03:28:16 10° ENE
ATLAS 2AS CENTAUR R/B 4.1 03:37:32 26° SE 03:37:32 26° SE 03:40:16 10° SE
Cosmos 1943 Rocket 3.6 03:57:46 30° NNE 03:57:46 30° NNE 04:00:28 10° NNE
Lacrosse 5 rocket 4.0 04:05:52 16° E 04:05:52 16° E 04:06:47 10° E
Lacrosse 4 Rocket 4.1 04:07:32 13° NE 04:07:32 13° NE 04:08:00 10° NE
Cosmos 407 Rocket 4.3 04:09:11 46° ESE 04:09:24 46° ESE 04:14:23 10° NE
CZ-4C R/B 3.7 04:08:37 33° N 04:10:35 40° NNE 04:18:01 10° E
Cosmos 2082 Rocket 4.3 04:18:02 15° S 04:18:02 15° S 04:18:59 10° S
Cosmos 2278 Rocket 3.0 04:20:39 40° N 04:20:39 40° N 04:24:22 10° NNE
SJ 16-02 3.1 04:25:14 16° SSE 04:27:47 29° ESE 04:31:29 10° NE
Cosmos 540 Rocket 4.1 04:34:15 43° SSE 04:34:15 43° SSE 04:37:38 10° SSE
Cosmos 2184 Rocket 3.8 04:35:56 70° SW 04:36:32 76° WNW 04:42:43 10° N
COSMOS 2406 3.2 04:39:53 66° SSW 04:39:53 66° SSW 04:45:04 10° SSE
IRS-1D 4.4 04:36:29 10° NNE 04:41:41 51° E 04:46:50 10° S
Tiangong 0.9 04:45:22 12° SE 04:45:22 12° SE 04:45:54 10° SE
Meteor 1-24 Rocket 4.4 04:39:02 10° N 04:45:00 57° ENE 04:50:50 10° SSE
Timation 2 Rocket 4.2 04:45:21 51° NW 04:45:21 51° NW 04:51:13 10° NNE
Cosmos 1140 Rocket 4.3 04:46:46 38° N 04:46:46 38° N 04:50:12 10° NNE
Meteor 2-10 Rocket 4.3 04:48:17 39° NNW 04:48:17 39° NNW 04:52:00 10° N
Cosmos 1707 Rocket 3.8 04:50:13 57° SSE 04:50:13 57° SSE 04:53:44 10° S
Cosmos 1633 Rocket 3.7 04:45:57 10° S 04:50:09 53° E 04:54:21 10° NNE
Cosmos 2074 Rocket 3.9 04:50:00 56° WSW 04:50:43 60° WNW 04:56:57 10° N
Cosmos 220 Rocket 4.1 04:54:23 66° SSE 04:54:23 66° SSE 04:57:57 10° SSE
Cosmos 2251 Rocket 4.0 04:50:44 10° S 04:55:58 59° ESE 05:01:11 10° NNE
Gbstr 26 Del rocket 4.2 04:53:48 48° W 04:56:05 79° N 05:02:40 10° E
Cosmos 841 Rocket 4.1 04:53:13 20° N 04:56:40 54° ENE 05:01:41 10° SE
NOSS 2-2 (D) 4.3 04:57:41 33° SE 04:57:48 33° SE 05:00:35 10° ENE
COSMO-SKYMED 1 2.6 04:55:48 10° SSE 04:59:53 69° ENE 05:01:39 33° N
Cosmos 1610 Rocket 4.3 04:54:06 10° SSW 05:00:13 79° W 05:06:28 10° N
Nadezhda 3 Rocket 4.1 05:00:38 10° NNW 05:06:38 49° W 05:12:40 10° SSW
Cosmos 1666 Rocket 3.4 05:04:54 10° SSW 05:09:18 83° W 05:13:45 10° N
Cosmos 1066 4.5 05:06:18 10° NNW 05:11:49 82° W 05:17:15 10° S
CENTAUR R/B 2.4 05:09:57 34° SW 05:12:45 80° NW 05:20:04 10° NE
NOSS 3-2 (A) 3.9 05:08:13 10° SSW 05:13:03 50° ESE 05:18:48 10° NE
Cosmos 1190 Rocket 4.2 05:08:34 10° SSW 05:13:43 72° ESE 05:18:54 10° NNE
Cosmos 2369 Rocket 2.7 05:09:29 10° SSW 05:15:05 62° ESE 05:20:44 10° NE
Cosmos 1953 2.6 05:11:36 10° S 05:15:13 60° E 05:18:52 10° NNE
SL-8 R/B 4.4 05:13:39 30° SSW 05:15:28 46° SSE 05:20:00 10° E
Cosmos 1656 Rocket 3.6 05:12:22 26° SW 05:15:42 74° WNW 05:21:21 10° NNE
Meteor 2-5 Rocket 3.9 05:09:46 10° NNW 05:15:44 84° E 05:21:41 10° SSE
Cosmos 1867 3.9 05:13:40 26° NNW 05:16:47 64° NE 05:22:12 10° SE
CZ-4 R/B 3.9 05:13:50 10° NNE 05:18:44 85° ESE 05:23:40 10° SSW
ATLAS 2AS CENTAUR R/B 4.0 05:25:01 19° SW 05:25:01 19° SW 05:28:14 10° SSW
GEOS 3 Rocket 4.4 05:20:09 10° ESE 05:25:10 48° NE 05:29:04 17° NNW
Okean 1-7 3.3 05:26:11 42° WSW 05:26:11 42° WSW 05:29:37 10° SSW
SL-23 DEB 3.2 05:25:46 68° NNW 05:25:57 70° N 05:29:13 10° E
NOAA 12 4.0 05:21:32 10° N 05:26:45 70° WNW 05:31:57 10° SSW
IGS 5A 4.1 05:24:01 10° NNE 05:27:56 53° E 05:31:49 10° S
Cosmos 2366 rocket 4.1 05:21:49 10° S 05:28:02 81° E 05:34:24 10° NNE
BREEZE M DEB (TANK) 4.0 05:27:28 21° SW 05:28:09 22° SSW 05:33:08 10° SSE
Cosmos 676 Rocket 4.4 05:24:49 10° S 05:29:53 62° ESE 05:35:00 10° NNE
Cosmos 2327 Rocket 4.5 05:27:26 10° SSW 05:33:47 66° WNW 05:40:07 10° N
Helios 1A Rocket 2.4 05:30:44 10° SSE 05:34:04 78° ENE 05:36:28 18° N
NOSS 2-2 (E) 3.0 05:36:09 21° SSW 05:38:07 66° SE 05:41:07 10° NE
Cosmos 1943 Rocket 3.5 05:39:16 20° NW 05:39:33 20° NW 05:43:37 10° N
Lacrosse 5 rocket 1.5 05:39:22 38° WSW 05:40:03 43° SW 05:43:36 10° SSE
USA 32 4.4 05:36:20 10° SW 05:41:14 39° WNW 05:46:09 10° N
FAST Rocket 4.1 05:39:43 22° N 05:41:15 72° E 05:44:06 10° SSE
Lacrosse 4 Rocket 2.9 05:43:01 18° NNW 05:43:01 18° NNW 05:45:11 10° N
Cosmos 1328 4.3 05:44:02 32° WSW 05:44:02 32° WSW 05:46:45 10° SSW
Cosmos 1959 Rocket 4.4 05:39:01 10° S 05:45:08 88° W 05:51:17 10° N
Cosmos 1809 Rocket 4.4 05:39:25 10° N 05:45:39 90° W 05:51:48 10° S
Cosmos 2297 3.6 05:40:08 10° SSW 05:45:45 88° WNW 05:51:26 10° NNE
Cosmos 2218 Rocket 4.0 05:40:03 10° S 05:46:24 83° W 05:52:51 10° N
Cosmos 1461 3.7 05:46:42 26° NW 05:46:57 27° NW 05:50:18 10° NNE
Cosmos 1703 Rocket 3.4 05:44:21 10° NNW 05:48:40 71° W 05:53:00 10° S
CZ-2C R/B 4.3 05:48:14 10° NNW 05:48:46 12° NNW 05:48:46 12° NNW
Cosmos 407 Rocket 4.2 05:49:20 24° W 05:51:28 32° NW 05:56:11 10° N
Cosmos 1484 Rocket 2.5 05:49:03 10° NNE 05:52:30 82° ESE 05:55:57 10° SSW
Cosmos 1607 4.0 05:48:12 15° NW 05:53:35 88° NE 05:59:57 10° SE
Cosmos 2263 4.2 05:49:50 10° SSW 05:55:36 89° ESE 06:01:23 10° NNE
Cosmos 1900 4.3 05:52:39 18° NW 05:56:20 71° SW 06:01:12 10° SSE
Cosmos 2228 Rocket 3.9 05:55:52 22° NW 05:57:22 27° W 06:01:03 10° SSW
MOS 1 Rocket 4.0 05:54:50 10° NNE 05:59:05 51° E 06:03:13 10° S
CZ-4C R/B 2.9 05:53:32 15° NW 05:59:33 82° SW 06:08:09 10° SE
Cosmos 1727 Rocket 4.0 05:54:10 10° N 06:00:24 86° E 06:06:34 10° S
CBERS-1 4.3 05:55:24 10° NNE 06:00:31 74° ESE 06:05:37 10° S
Cosmos 2278 Rocket 3.7 06:02:30 16° NW 06:03:58 18° NNW 06:07:46 10° N
Cosmos 1470 Rocket 3.8 06:00:10 10° SSW 06:04:14 43° WNW 06:08:22 10° N
Cosmos 489 Rocket 4.5 05:58:01 10° NNW 06:04:17 90° SW 06:10:34 10° SSE
Cosmos 968 Rocket 3.9 06:00:07 10° S 06:05:17 67° ESE 06:10:27 10° NNE
SJ 16-02 1.9 06:01:54 10° SW 06:05:48 34° WNW 06:09:44 10° N
Cosmos 371 Rocket 3.6 06:03:23 10° SW 06:07:56 42° WNW 06:12:31 10° NNE
NOSS 2-2 (C) 3.8 06:07:22 23° WNW 06:08:03 25° NW 06:10:39 10° NNE
CZ-2D R/B 4.5 06:05:50 10° NNE 06:08:44 35° E 06:11:35 10° SSE
GRACE-FO 1 4.3 06:05:36 10° S 06:09:03 72° W 06:12:33 10° N
GRACE-FO 2 4.3 06:06:04 10° S 06:09:29 71° W 06:12:59 10° N
SL-8 Rocket 4.2 06:06:10 10° SSW 06:12:11 48° WNW 06:18:13 10° N
Cosmos 1933 Rocket 3.5 06:07:46 10° SSW 06:12:11 75° W 06:16:38 10° N
Cosmos 304 Rocket 4.3 06:08:50 10° WSW 06:13:13 36° NW 06:17:38 10° N
Landsat 7 4.1 06:09:14 10° NNE 06:13:55 71° ESE 06:18:32 10° S
Cosmos 1340 Rocket 2.6 06:11:45 10° S 06:15:28 90° SE 06:19:16 10° NNE
Cosmos 2297 Rocket 3.6 06:11:04 10° NNW 06:16:16 35° NE 06:21:27 10° ESE
Molniya-1 3.7 06:13:34 10° SW 06:16:38 78° NW 06:24:31 10° NE
Cosmos 2341 Rocket 4.3 06:10:46 10° SW 06:16:52 46° WNW 06:23:00 10° N
Tiangong 0.4 06:18:20 10° SW 06:19:53 13° SSW 06:21:25 10° SSE
IRS-1D 4.4 06:16:01 10° N 06:20:34 29° WNW 06:25:04 10° WSW
USA 290 3.7 06:20:29 10° N 06:23:29 35° ENE 06:26:27 10° SE
SMAP 3.1 06:19:21 10° NNE 06:24:02 88° WNW 06:28:42 10° SSW
Cosmos 2242 Rocket 4.1 06:21:12 10° N 06:25:34 62° ENE 06:29:54 10° SSE
Cosmos 724 4.5 06:21:41 10° NW 06:27:31 56° WSW 06:33:11 10° SSE
In-Cosmos 22 Rocket 4.2 06:21:57 10° NNW 06:27:36 83° W 06:33:21 10° S
Cosmos 1633 Rocket 4.3 06:25:01 10° WSW 06:28:07 19° WNW 06:31:14 10° NNW
Meteor 1-16 Rocket 4.2 06:26:08 10° SSW 06:31:22 54° WNW 06:36:35 10° N
Cosmos 1954 Rocket 4.5 06:26:41 10° WSW 06:31:26 36° NW 06:36:14 10° NNE
COSMO-SKYMED 1 4.2 06:33:29 10° WSW 06:35:38 14° W 06:37:49 10° WNW
Cosmos 2251 Rocket 4.4 06:34:02 10° WSW 06:38:32 27° NW 06:43:03 10° N
Cosmos 1869 Rocket 3.6 06:34:54 10° SSW 06:39:16 58° WNW 06:43:39 10° N
Cosmos 1821 Rocket 4.2 06:33:25 10° SSW 06:39:34 50° WNW 06:45:40 10° N
Cosmos 1441 Rocket 2.9 06:36:30 10° NNW 06:39:49 56° W 06:43:03 10° S
Cosmos 546 4.5 06:36:34 10° W 06:40:15 85° N 06:43:57 10° E
Cosmos 158 Rocket 3.9 06:35:21 10° NNW 06:40:16 87° ENE 06:45:14 10° SSE
Gbstr 26 Del rocket 4.1 06:35:50 10° WNW 06:43:07 82° SSW 06:49:07 10° ESE
Cosmos 2292 Rocket 2.8 06:40:32 10° NNW 06:43:40 79° W 06:47:22 10° S
NOSS 2-2 (D) 3.9 06:44:23 10° W 06:46:57 23° NNW 06:49:29 10° NNE
Cosmos 2344 4.0 06:40:20 10° NW 06:48:11 85° SW 06:58:48 10° SE
Cosmos 1241 Rocket 4.5 06:41:59 10° SW 06:48:16 68° NW 06:54:29 10° NE
Cosmos 1953 3.9 06:48:49 10° W 06:50:40 13° WNW 06:52:32 10° NNW
IRS-1C 4.2 06:46:18 10° NNE 06:51:40 89° ESE 06:57:00 10° SSW
Thor Agena Rocket 3.6 06:48:12 10° N 06:53:19 66° WNW 06:58:28 10° SSW
SeaSat 1 3.1 06:49:04 10° NE 06:53:56 63° ESE 06:58:47 10° SSW
SL-08 R/B 3.5 06:50:42 10° SSE 06:55:37 87° ENE 07:00:32 10° NNW
